Vertical_Velocity
1 -4 -5 11 7 3 6 6 4 6 4 -2 -1 2 0 1 -0 -0 1 1 1 1 1 2 1 1 -0 0 1 0 -0 -1 -0 0 1 1 0 0 1 1 1 1 1 1
-4 -10 9 5 6 6 3 -1 -1 1 -0 -2 4 -1 0 -1 0 -2 -1 1 0 -0 1 0 1 2 1 -0 1 1 -0 -1 -1 0 0 1 1 1 2 1 1 0 1 0
3 25 9 2 3 0 -3 -0 -0 4 7 5 6 -4 0 1 -1 0 0 -0 -0 1 1 1 1 1 2 1 1 1 1 -0 -1 -1 -1 -0 1 1 1 1 1 1 0 -0
-0 0 -6 -3 1 1 -1 8 0 1 4 4 -1 -5 0 5 1 1 1 -0 -0 1 1 1 1 1 1 1 1 1 1 -0 -0 -0 0 -0 1 -0 0 1 1 1 1 -0
23 4 1 -2 21 5 24 7 11 4 -0 8 -6 -9 11 -1 1 3 1 -1 -2 1 2 0 0 0 1 1 1 1 0 -1 -1 -1 -1 -0 -1 -1 0 -0 -1 -0 0 1
-6 -3 -6 6 1 7 9 2 8 1 0 -20 9 1 2 4 4 -1 3 2 1 1 1 1 1 1 1 1 1 1 1 0 -0 -1 -1 -1 -1 -1 -1 -1 -0 1 1 1
1 -1 1 4 4 -4 2 -0 -2 -6 -19 -5 4 -13 2 2 2 1 -0 2 2 2 0 0 1 1 1 1 1 1 1 1 1 0 -0 -0 -1 -1 -1 -1 -1 -1 -0 -0
-3 -6 2 5 2 9 9 5 4 2 -2 11 3 -29 -6 2 1 3 3 4 3 1 2 1 1 1 1 0 0 0 1 1 1 1 0 0 0 0 -0 -1 -1 -0 0 -0
3 1 2 4 5 2 -4 -26 21 -1 -1 -1 -11 -2 6 -1 4 6 1 1 1 1 1 2 2 0 -0 -0 1 0 -0 -1 -1 -0 -0 0 0 0 0 -0 -1 -1 -2 -1
2 -4 -1 12 1 -1 -7 18 -2 -11 -9 -7 -10 -2 -3 8 6 1 -0 -2 0 1 0 -0 0 1 1 1 1 0 0 1 1 1 0 -0 -1 -1 -1 -1 -2 -1 -1 -2
3 3 3 3 2 7 3 -4 -7 8 -9 -5 -2 -7 11 0 1 -1 1 0 1 0 -0 0 0 0 1 1 1 1 0 0 0 -0 -0 0 0 0 -0 -0 -1 -1 -1 -2
7 -3 -3 1 3 3 16 11 17 4 0 1 -0 -5 5 5 2 2 0 1 1 -0 -1 -1 -2 -1 -1 -0 0 1 1 1 0 -0 -1 -1 -1 -1 -0 -0 0 0 -1 -0
9 -9 1 -0 -8 -8 -9 4 4 -1 4 -11 -4 4 3 1 4 -2 1 -2 -1 -0 0 0 1 1 1 1 1 1 -0 -0 -0 0 0 -0 -1 -1 -0 -1 -1 -0 -1 -0
3 -1 -4 3 11 12 -3 11 6 2 2 7 -7 6 6 1 1 5 4 4 3 1 1 0 0 0 0 -0 -1 -1 -1 -1 -1 -1 -2 -2 -3 -3 -2 -2 -1 -1 -1 -1
-0 -2 4 5 1 1 2 2 1 -0 4 1 12 0 6 5 1 -0 -0 -1 0 0 0 -1 -1 -0 -0 0 0 -0 -1 -1 -1 -1 -0 -2 -3 -3 -2 -2 -3 -3 -2 -3
0 -1 -1 -2 1 -2 -2 -0 1 1 -1 -1 2 1 -0 3 -2 -1 -1 0 1 -1 0 -0 -0 -1 -1 -2 -2 -2 -1 0 -0 -2 -2 -2 -3 -3 -3 -3 -3 -2 -2 -2
7 4 11 5 7 4 -2 -1 4 3 4 3 -0 4 0 1 3 2 1 1 -0 -2 -3 -2 -0 0 0 -1 -2 -4 -5 -3 -3 -2 -4 -4 -2 -3 -2 -2 -2 -3 -3 -3
4 21 11 1 7 -5 6 0 2 3 -0 0 2 2 -1 -1 0 1 0 0 0 1 1 0 -1 -2 -1 -1 -2 -4 -2 -3 -3 -2 -5 -3 -3 -3 -4 -3 -4 -4 -1 -1
5 -0 9 1 11 1 -2 6 5 0 3 -2 -2 -1 -1 -1 -0 -1 -1 0 0 -2 -2 -4 -2 -3 -2 1 -1 -3 -3 -2 -1 -2 -3 -3 -4 -2 -2 -2 -2 -5 -1 -3
7 3 2 6 2 2 12 4 3 7 -8 -1 -2 -2 -2 -0 0 0 -0 -2 -2 -1 -1 -3 -2 -5 -5 -4 -2 -5 -6 -6 -1 -4 -2 -3 -5 -3 -1 -3 -2 -3 -6 -3
3 -1 -0 2 1 -9 3 2 3 -2 2 0 -1 -1 -1 1 2 1 -0 -1 -1 -1 -2 -2 -4 -4 -3 -5 -2 -4 -2 -9 -3 -4 -2 -4 -6 -6 -5 -3 -3 -6 -4 -5
1 2 1 -3 -4 -10 0 1 2 0 -0 2 2 -0 0 1 -1 -2 -3 -2 -2 -3 -3 -1 -2 -3 -4 -2 -0 -2 -7 -7 -6 -3 -2 -3 -5 -6 -6 -6 -1 -5 -4 -4
-6 -7 2 1 2 -0 1 -0 3 0 -0 -1 -0 -0 -1 -1 -2 -2 -1 -1 -1 -2 -4 -2 1 -1 -6 -7 -4 3 -6 -5 -3 -1 -1 0 -1 -5 -7 -6 -3 -3 -5 -6
1 4 -0 1 -3 0 1 1 1 2 1 0 -1 -1 -1 -1 -2 -1 -3 -3 -4 -2 -2 -0 -3 -1 3 -10 -6 -8 -2 -4 -1 0 2 -0 -3 -5 -3 -5 -5 -5 -1 -5
5 4 4 1 0 1 0 1 1 1 -0 -1 -2 -2 -1 -0 -2 -4 -3 -2 -2 -3 -6 -3 -3 -1 0 -3 -2 -7 -9 -9 -2 -3 -1 -1 -5 -2 -1 -5 -1 -1 -0 -6
4 4 3 2 2 3 2 0 -2 -2 -1 -2 -1 -1 -1 -2 -2 -1 -3 -2 -3 -5 -7 -4 -4 -3 -3 -4 1 -3 -7 -7 -4 -2 -4 -3 -2 1 -2 -3 3 -7 -5 -1
Height
5670 5673 5678 5686 5690 5693 5695 5699 5703 5708 5712 5715 5718 5724 5728 5730 5734 5737 5741 5745 5748 5751 5754 5757 5760 5762 5764 5767 5769 5771 5773 5775 5777 5779 5781 5783 5784 5786 5787 5788 5790 5791 5792 5793
5666 5670 5677 5679 5683 5686 5688 5691 5696 5701 5706 5710 5714 5719 5722 5725 5728 5732 5736 5739 5742 5745 5748 5751 5753 5756 5758 5761 5763 5765 5767 5769 5771 5772 5774 5776 5778 5779 5781 5782 5783 5784 5785 5786
5663 5671 5670 5672 5676 5680 5683 5687 5692 5698 5702 5706 5710 5713 5717 5720 5723 5726 5730 5734 5737 5739 5742 5745 5747 5750 5752 5755 5757 5759 5761 5763 5764 5766 5767 5769 5771 5773 5774 5775 5776 5777 5778 5778
5658 5661 5664 5668 5671 5675 5679 5684 5687 5692 5696 5699 5704 5706 5710 5714 5717 5720 5724 5728 5731 5733 5736 5738 5741 5743 5746 5748 5750 5752 5754 5756 5757 5758 5759 5761 5762 5764 5766 5767 5768 5769 5770 5770
5657 5657 5660 5663 5670 5672 5677 5678 5682 5686 5689 5693 5695 5698 5704 5706 5711 5715 5718 5722 5725 5727 5730 5732 5734 5736 5738 5740 5742 5744 5746 5748 5749 5750 5751 5752 5754 5755 5756 5757 5758 5760 5760 5761
5647 5651 5655 5660 5664 5666 5670 5672 5676 5678 5681 5682 5689 5691 5696 5700 5705 5707 5711 5714 5717 5720 5722 5724 5727 5729 5731 5732 5734 5736 5738 5739 5740 5741 5742 5743 5744 5745 5746 5747 5748 5749 5750 5751
5643 5646 5649 5654 5657 5658 5661 5664 5667 5671 5670 5673 5681 5682 5688 5693 5697 5700 5703 5706 5709 5712 5714 5716 5719 5721 5722 5724 5725 5726 5728 5729 5730 5731 5732 5733 5733 5734 5735 5735 5736 5737 5738 5739
5637 5640 5644 5649 5651 5654 5656 5659 5661 5662 5664 5668 5675 5674 5681 5686 5691 5694 5696 5699 5701 5704 5706 5708 5710 5711 5712 5713 5715 5716 5717 5718 5719 5720 5720 5721 5721 5722 5722 5723 5723 5723 5724 5725
5631 5634 5638 5643 5646 5649 5649 5650 5659 5659 5660 5662 5666 5667 5673 5679 5683 5686 5688 5690 5692 5694 5696 5698 5699 5701 5702 5703 5704 5705 5706 5706 5707 5708 5708 5708 5708 5708 5708 5709 5709 5709 5709 5709
5624 5626 5630 5635 5639 5641 5642 5649 5650 5649 5650 5652 5654 5659 5663 5671 5675 5676 5679 5680 5682 5684 5686 5687 5689 5690 5691 5692 5692 5693 5694 5694 5694 5694 5694 5695 5695 5695 5694 5694 5694 5694 5693 5693
5614 5618 5623 5626 5629 5633 5636 5637 5640 5643 5644 5644 5646 5650 5655 5660 5665 5667 5668 5670 5672 5674 5675 5677 5678 5679 5679 5680 5680 5681 5681 5681 5681 5681 5681 5681 5680 5680 5680 5679 5678 5678 5677 5676
5605 5607 5611 5616 5621 5623 5626 5630 5632 5633 5636 5638 5641 5644 5646 5649 5653 5657 5659 5660 5661 5663 5664 5665 5666 5667 5667 5668 5668 5668 5667 5667 5667 5667 5666 5665 5665 5663 5662 5661 5660 5659 5658 5657
5596 5597 5600 5605 5609 5612 5615 5620 5622 5624 5627 5629 5632 5634 5638 5640 5642 5644 5646 5648 5649 5650 5651 5652 5653 5654 5654 5654 5654 5653 5653 5652 5651 5650 5649 5648 5646 5645 5644 5642 5641 5639 5637 5636
5587 5589 5592 5597 5602 5606 5608 5611 5613 5615 5617 5621 5623 5625 5627 5629 5630 5633 5635 5636 5637 5638 5639 5639 5640 5640 5640 5639 5639 5638 5637 5635 5634 5632 5631 5629 5627 5625 5623 5621 5619 5618 5616 5614
5577 5580 5584 5588 5591 5594 5597 5600 5603 5606 5610 5611 5615 5615 5617 5619 5620 5621 5622 5623 5624 5625 5626 5626 5626 5626 5625 5624 5623 5622 5621 5619 5617 5615 5613 5611 5608 5605 5603 5600 5598 5595 5593 5590
5569 5571 5574 5578 5581 5584 5587 5590 5594 5596 5598 5601 5603 5605 5605 5606 5607 5608 5609 5611 5612 5612 5613 5612 5612 5612 5612 5610 5609 5607 5604 5602 5599 5596 5593 5590 5587 5584 5581 5577 5573 5570 5567 5564
5558 5561 5566 5568 5571 5574 5576 5579 5581 5585 5588 5590 5592 5594 5595 5595 5596 5597 5598 5598 5599 5599 5599 5599 5598 5598 5596 5594 5592 5589 5586 5583 5579 5575 5571 5568 5563 5559 5556 5552 5548 5544 5540 5536
5547 5551 5554 5556 5560 5562 5565 5568 5571 5574 5577 5579 5581 5582 5583 5584 5585 5586 5586 5587 5587 5587 5586 5585 5583 5581 5579 5576 5572 5568 5565 5561 5556 5551 5546 5542 5538 5533 5529 5523 5518 5514 5509 5504
5536 5540 5542 5545 5549 5553 5555 5558 5561 5562 5565 5567 5570 5571 5573 5575 5576 5576 5577 5576 5575 5574 5572 5570 5567 5564 5561 5557 5552 5547 5543 5538 5533 5527 5520 5514 5510 5504 5498 5491 5485 5480 5475 5470
5524 5527 5530 5534 5537 5541 5547 5549 5552 5554 5556 5559 5561 5563 5565 5566 5566 5567 5566 5565 5562 5560 5557 5554 5550 5545 5541 5537 5531 5525 5519 5514 5509 5501 5494 5486 5480 5475 5468 5461 5455 5448 5443 5439
5517 5520 5523 5526 5529 5534 5538 5541 5544 5547 5553 5552 5554 5555 5556 5557 5556 5555 5553 5551 5548 5545 5542 5537 5532 5526 5522 5516 5510 5502 5495 5489 5484 5477 5468 5459 5452 5446 5439 5434 5427 5421 5416 5411
5511 5514 5517 5520 5523 5528 5531 5535 5538 5540 5541 5543 5545 5545 5545 5545 5544 5542 5540 5537 5533 5529 5525 5520 5512 5505 5499 5493 5487 5478 5469 5465 5458 5452 5443 5435 5427 5420 5414 5409 5403 5396 5389 5384
5503 5507 5511 5516 5519 5521 5524 5527 5529 5530 5532 5533 5534 5534 5533 5532 5530 5527 5525 5521 5516 5511 5506 5501 5493 5485 5475 5469 5463 5455 5445 5440 5435 5428 5420 5411 5403 5394 5387 5382 5376 5371 5363 5357
5494 5499 5503 5507 5510 5513 5516 5518 5520 5521 5522 5522 5522 5522 5520 5518 5515 5511 5507 5503 5498 5492 5486 5479 5472 5464 5454 5446 5439 5433 5426 5418 5413 5406 5397 5387 5378 5369 5362 5355 5348 5342 5335 5329
5486 5491 5495 5499 5502 5505 5507 5509 5511 5511 5512 5511 5510 5508 5506 5503 5499 5494 5490 5485 5478 5472 5466 5459 5453 5446 5437 5428 5419 5409 5401 5394 5389 5381 5371 5361 5352 5345 5337 5329 5322 5315 5308 5302
5477 5482 5487 5490 5494 5497 5499 5500 5501 5502 5501 5500 5498 5496 5492 5488 5484 5478 5473 5468 5461 5455 5449 5443 5435 5427 5418 5409 5400 5388 5378 5370 5363 5355 5345 5336 5328 5320 5312 5304 5299 5289 5283 5279